Temp
9 8 8 8 8 7 7 7 8 7 7 6 6 6 5 5 5 5 5 5 5 5 5 5 5 5 5 5 5 5 5 5 5 5 5 5 5 5 5 5 5 5 5
8 8 7 7 7 7 7 7 7 7 7 6 6 6 6 6 6 5 5 5 5 5 5 4 4 4 5 5 5 4 4 4 4 4 4 4 4 4 5 5 5 5 5
7 7 7 7 7 7 7 7 7 7 7 7 7 7 6 6 6 5 5 5 4 4 4 4 4 4 4 4 4 4 4 4 4 4 4 4 3 4 4 4 4 5 5
7 7 7 7 7 7 7 7 7 7 7 7 6 6 6 6 5 5 5 5 4 4 4 4 4 4 4 4 4 4 4 4 4 4 3 4 4 4 4 4 4 4 4
7 7 7 7 7 7 7 7 7 7 6 6 6 6 5 5 5 5 5 5 5 4 4 4 4 4 3 4 4 4 4 5 4 3 3 3 3 3 4 4 4 4 4
7 7 7 7 7 7 7 7 6 6 6 5 5 5 4 4 4 4 4 4 4 4 4 4 4 4 4 4 4 4 4 4 4 3 3 2 3 4 4 3 3 3 3
7 7 7 7 7 6 6 6 6 6 5 5 5 4 4 4 4 4 4 4 4 4 4 4 4 4 4 4 4 4 4 4 3 3 3 3 3 3 3 3 3 3 3
7 7 7 6 6 6 6 6 5 5 6 6 6 5 5 4 5 5 5 4 4 4 4 4 4 4 4 4 4 4 3 3 3 2 1 1 3 3 3 3 3 2 2
7 7 6 6 6 6 5 5 6 6 6 6 5 5 5 5 5 5 5 5 5 4 4 4 3 4 4 4 4 4 4 3 3 2 2 2 4 3 3 3 3 2 2
6 6 6 6 6 5 6 6 6 6 5 5 5 5 5 4 4 4 4 4 4 4 4 4 4 4 4 3 3 3 3 3 3 3 1 4 3 3 3 3 2 2 2
6 6 6 5 5 5 5 5 5 5 5 5 4 4 4 4 4 4 4 3 3 3 3 3 3 3 3 3 3 3 3 3 3 2 2 3 3 3 3 2 2 2 2
6 6 5 5 5 5 5 5 5 5 5 5 4 4 4 4 4 3 4 3 3 3 3 3 3 3 2 2 2 2 2 2 2 2 2 2 2 3 3 2 2 2 1
4 3 5 5 5 5 5 5 5 4 4 4 4 4 4 3 3 3 3 3 3 3 2 3 3 2 2 2 2 2 2 2 2 1 1 2 2 2 2 2 2 2 2
3 3 5 5 5 5 5 4 4 4 4 4 4 4 3 3 3 3 3 2 2 2 2 2 1 2 2 2 1 1 1 1 1 1 1 2 1 1 1 2 2 2 2
3 3 3 4 5 5 4 4 4 4 3 3 3 3 3 3 3 2 2 2 2 2 1 1 1 1 1 1 1 1 1 1 1 1 0 1 1 1 1 1 1 1 2
3 3 3 4 4 4 4 4 3 3 3 3 2 2 2 2 2 1 1 1 1 1 1 1 1 1 1 1 1 1 1 1 1 1 1 1 1 1 1 1 1 1 1
3 3 3 4 4 4 4 4 3 3 3 2 2 2 2 1 1 1 1 0 -0 -0 0 0 1 0 0 0 0 0 1 1 0 0 0 -0 1 1 1 0 0 0 0
4 3 3 4 4 4 4 3 3 2 2 2 2 1 1 1 0 0 -0 -0 -0 -1 -0 -0 -0 -0 -0 -0 -0 -0 -0 0 0 0 0 -0 -1 0 0 0 0 -0 -0
3 3 3 3 3 3 3 3 3 2 2 1 1 1 0 0 0 -0 -0 -0 -0 -1 -0 -0 0 0 0 0 0 -1 -0 0 -0 -0 -0 0 -0 -1 -1 0 -0 -1 -1
4 5 4 4 3 3 3 3 2 2 1 1 0 0 0 -0 -0 -1 -1 -1 -1 -1 -0 -0 -0 -1 -1 -1 -1 -1 -2 -2 -1 -1 -1 -1 -1 -1 -1 -2 -1 -1 -1
4 4 4 4 4 3 3 2 2 1 1 1 0 0 -0 -0 -1 -1 -0 -1 -2 -2 -2 -1 -1 -1 -1 -2 -2 -1 -1 -1 -1 -1 -1 -1 -2 -1 -1 -1 -2 -2 -1
4 4 4 4 3 3 2 2 2 1 1 1 0 0 -0 -1 -1 -2 -2 -2 -2 -2 -2 -2 -2 -2 -2 -2 -2 -3 -2 -2 -3 -2 -2 -1 -2 -2 -3 -1 -2 -2 -3
4 3 3 3 3 2 2 2 1 1 0 0 -0 -1 -2 -2 -2 -2 -3 -2 -2 -2 -2 -2 -2 -2 -2 -2 -2 -3 -3 -3 -4 -4 -4 -4 -4 -3 -3 -4 -3 -3 -3
3 3 3 2 2 1 1 1 1 0 0 -0 -1 -1 -2 -2 -2 -2 -2 -2 -2 -2 -3 -3 -3 -2 -3 -2 -3 -3 -5 -5 -4 -4 -4 -4 -4 -4 -4 -4 -5 -4 -3
3 2 2 1 1 1 1 0 0 0 -0 -1 -1 -1 -1 -1 -2 -3 -3 -3 -3 -3 -3 -3 -3 -3 -3 -4 -4 -4 -4 -5 -5 -5 -4 -4 -5 -5 -5 -5 -6 -5 -5
2 1 1 1 0 0 0 -0 -0 -1 -1 -1 -1 -1 -2 -3 -3 -3 -3 -3 -3 -4 -4 -4 -4 -4 -4 -5 -5 -6 -6 -6 -6 -6 -7 -6 -7 -5 -6 -5 -6 -6 -7
Height
3163 3165 3166 3168 3169 3169 3170 3170 3169 3169 3170 3171 3171 3170 3171 3171 3171 3171 3170 3171 3169 3171 3168 3169 3169 3167 3167 3166 3167 3166 3166 3166 3166 3166 3164 3164 3165 3165 3165 3164 3163 3162 3162
3164 3165 3167 3167 3169 3170 3171 3169 3169 3170 3170 3170 3170 3171 3171 3171 3170 3170 3168 3169 3169 3167 3168 3167 3168 3166 3167 3165 3165 3165 3165 3166 3165 3165 3164 3164 3164 3165 3164 3163 3162 3162 3162
3163 3165 3167 3168 3169 3169 3169 3170 3171 3172 3172 3170 3171 3169 3169 3169 3169 3167 3168 3166 3166 3166 3166 3164 3166 3163 3165 3164 3164 3163 3163 3164 3163 3164 3163 3163 3160 3163 3162 3161 3161 3161 3161
3164 3166 3167 3168 3169 3169 3170 3170 3171 3172 3172 3171 3169 3169 3168 3167 3167 3166 3168 3165 3165 3164 3164 3162 3163 3162 3162 3162 3161 3160 3161 3160 3161 3162 3161 3161 3163 3158 3159 3158 3158 3158 3158
3164 3166 3167 3168 3170 3170 3171 3171 3171 3170 3172 3171 3167 3167 3166 3165 3164 3164 3163 3162 3162 3162 3161 3160 3160 3159 3159 3158 3158 3157 3157 3158 3158 3158 3159 3158 3159 3154 3155 3155 3155 3155 3155
3167 3168 3169 3170 3170 3171 3170 3171 3170 3170 3168 3168 3166 3165 3163 3163 3162 3162 3161 3160 3160 3159 3158 3157 3157 3156 3156 3156 3155 3155 3155 3154 3155 3155 3156 3154 3152 3152 3152 3152 3152 3152 3151
3168 3169 3169 3169 3169 3169 3168 3168 3167 3167 3166 3165 3164 3162 3161 3161 3160 3159 3159 3157 3157 3156 3155 3153 3152 3152 3152 3151 3151 3150 3150 3151 3151 3151 3150 3150 3147 3148 3149 3149 3149 3149 3149
3168 3169 3169 3169 3169 3168 3167 3167 3166 3165 3164 3163 3162 3161 3160 3160 3159 3158 3157 3156 3155 3154 3153 3152 3151 3150 3150 3149 3148 3147 3146 3146 3147 3147 3146 3144 3144 3146 3146 3146 3146 3145 3146
3168 3168 3169 3169 3168 3168 3166 3165 3165 3164 3164 3163 3161 3161 3160 3160 3159 3158 3157 3156 3154 3153 3152 3151 3149 3147 3146 3146 3146 3145 3145 3144 3144 3143 3142 3138 3140 3141 3142 3142 3143 3143 3143
3169 3169 3168 3168 3168 3166 3165 3164 3164 3164 3163 3162 3162 3161 3160 3159 3158 3157 3155 3154 3153 3152 3150 3149 3147 3146 3145 3144 3143 3142 3142 3142 3142 3142 3140 3138 3137 3136 3137 3138 3139 3139 3140
3169 3168 3169 3165 3166 3165 3164 3163 3163 3162 3162 3161 3161 3160 3159 3157 3155 3154 3153 3152 3150 3148 3147 3146 3144 3143 3142 3141 3140 3139 3139 3138 3138 3137 3134 3137 3135 3134 3133 3134 3134 3135 3135
3167 3167 3166 3164 3166 3166 3165 3163 3163 3162 3161 3161 3160 3159 3157 3156 3154 3152 3150 3148 3146 3145 3144 3143 3141 3140 3139 3137 3135 3136 3135 3134 3134 3132 3128 3131 3131 3130 3130 3130 3130 3131 3130
3165 3167 3167 3166 3165 3164 3164 3164 3163 3162 3162 3160 3159 3157 3156 3154 3151 3149 3146 3144 3142 3140 3139 3138 3137 3136 3134 3133 3132 3131 3130 3130 3129 3127 3122 3126 3125 3125 3125 3125 3126 3126 3126
3168 3168 3165 3166 3165 3165 3164 3163 3162 3162 3161 3160 3158 3157 3154 3152 3150 3148 3146 3144 3141 3139 3136 3135 3132 3130 3130 3128 3127 3126 3125 3124 3124 3123 3117 3120 3120 3119 3119 3119 3120 3121 3122
3168 3168 3166 3165 3164 3164 3163 3162 3162 3161 3160 3159 3157 3155 3153 3151 3149 3147 3144 3142 3140 3137 3134 3132 3129 3126 3124 3123 3121 3120 3119 3117 3116 3116 3113 3113 3114 3113 3113 3113 3114 3115 3116
3168 3167 3166 3165 3163 3162 3162 3161 3160 3159 3158 3156 3154 3152 3150 3149 3146 3144 3142 3139 3137 3134 3131 3128 3125 3123 3121 3118 3115 3113 3112 3111 3109 3108 3107 3102 3106 3106 3105 3105 3106 3107 3109
3167 3167 3166 3163 3162 3161 3160 3159 3158 3156 3155 3153 3151 3148 3146 3144 3142 3140 3138 3135 3132 3130 3126 3123 3120 3117 3115 3112 3109 3106 3104 3103 3102 3101 3101 3098 3097 3098 3098 3097 3098 3098 3100
3168 3167 3165 3162 3160 3159 3158 3156 3155 3153 3151 3150 3147 3145 3143 3140 3137 3135 3133 3130 3126 3124 3121 3118 3115 3112 3109 3107 3103 3101 3098 3096 3094 3093 3092 3092 3089 3088 3090 3090 3089 3090 3091
3165 3164 3162 3160 3158 3156 3154 3154 3152 3150 3148 3146 3143 3140 3137 3135 3132 3130 3127 3124 3121 3118 3116 3113 3111 3107 3104 3101 3098 3094 3090 3088 3086 3084 3083 3083 3083 3081 3079 3077 3082 3082 3082
3158 3158 3158 3157 3154 3153 3152 3151 3149 3147 3145 3142 3139 3136 3133 3130 3126 3124 3121 3118 3116 3112 3110 3107 3104 3102 3098 3095 3092 3088 3086 3083 3078 3076 3073 3073 3071 3070 3073 3069 3071 3073 3073
3156 3155 3154 3152 3151 3151 3149 3147 3145 3143 3140 3137 3134 3128 3126 3124 3121 3117 3114 3111 3108 3105 3101 3098 3095 3090 3087 3086 3080 3077 3074 3073 3070 3067 3067 3064 3062 3060 3059 3062 3057 3063 3061
3153 3151 3150 3149 3148 3147 3144 3142 3141 3138 3135 3132 3127 3123 3120 3116 3114 3109 3105 3101 3098 3094 3091 3087 3083 3079 3077 3075 3070 3068 3063 3062 3060 3057 3055 3054 3053 3053 3050 3048 3050 3052 3051
3149 3148 3147 3146 3144 3143 3140 3136 3135 3132 3128 3126 3121 3118 3113 3108 3105 3100 3095 3090 3086 3082 3078 3075 3072 3069 3064 3064 3061 3058 3053 3049 3051 3052 3049 3042 3044 3041 3042 3040 3037 3040 3042
3147 3146 3143 3141 3138 3136 3135 3130 3128 3125 3122 3118 3114 3110 3105 3100 3096 3091 3086 3080 3075 3072 3068 3064 3061 3057 3053 3049 3047 3045 3042 3039 3035 3033 3039 3036 3029 3030 3030 3031 3029 3025 3027
3143 3141 3138 3135 3132 3130 3128 3125 3121 3117 3114 3109 3104 3098 3094 3089 3084 3079 3074 3070 3066 3062 3058 3054 3049 3045 3041 3037 3033 3028 3026 3025 3025 3020 3017 3022 3024 3019 3018 3021 3019 3016 3011
3138 3136 3133 3131 3126 3122 3120 3116 3113 3109 3104 3099 3095 3090 3083 3078 3073 3069 3064 3058 3053 3048 3042 3037 3033 3027 3025 3020 3015 3011 3009 3008 3007 3004 3004 3006 3007 3007 3006 3009 3007 3003 3001
Wind_Speed
6 13 15 9 9 10 8 6 5 3 1 1 2 4 4 6 7 9 8 9 8 8 7 8 8 9 8 10 13 12 12 13 14 15 14 14 12 11 12 12 14 14 12
10 14 13 11 11 7 5 6 4 2 3 3 3 4 7 8 9 10 11 11 12 13 12 12 11 11 13 14 14 15 15 16 15 16 16 17 15 13 12 13 13 13 13
12 10 11 10 10 6 6 4 3 3 4 4 4 7 9 11 14 14 14 14 15 16 16 15 16 15 16 18 17 18 19 20 18 16 16 15 18 17 16 16 18 16 15
9 10 11 10 7 4 3 2 2 4 6 8 9 12 13 14 15 15 16 16 16 18 19 19 20 20 19 21 21 21 21 18 15 14 13 18 15 26 21 17 19 19 18
12 10 9 7 6 4 3 3 5 8 11 13 14 15 17 15 15 17 17 17 18 19 19 21 22 22 21 22 22 21 20 18 15 14 17 22 18 25 20 20 18 18 20
12 10 8 6 4 3 4 7 9 12 14 15 15 15 15 16 16 17 18 19 20 20 21 21 21 21 22 23 21 20 20 18 16 16 14 22 21 22 21 20 19 19 18
12 9 7 5 4 5 7 11 13 12 11 11 12 12 11 12 14 15 16 17 19 20 21 21 22 21 22 22 21 21 20 19 18 19 22 22 24 21 22 19 18 18 17
10 8 5 4 5 9 12 12 11 8 7 8 9 8 7 8 10 11 12 13 14 16 18 20 22 22 23 23 21 19 17 17 16 17 18 21 23 20 23 21 18 17 16
8 5 4 6 10 11 8 7 7 5 6 6 7 7 7 9 10 12 13 13 13 13 14 16 18 18 18 19 19 19 19 17 15 13 16 20 20 18 19 18 20 20 19
6 6 8 9 7 7 5 6 7 7 7 7 7 7 9 11 12 14 14 15 15 16 16 17 17 18 18 19 18 18 16 17 17 18 17 20 18 19 19 18 18 19 21
8 9 8 6 6 6 8 6 7 6 7 7 8 8 10 13 15 17 16 18 18 18 19 19 20 21 22 22 22 22 22 22 21 21 25 20 20 20 20 19 20 18 24
13 9 8 7 7 6 5 5 6 7 9 11 12 13 14 15 17 20 19 19 20 21 22 24 24 25 25 26 26 23 24 24 24 25 30 23 22 22 21 20 22 21 16
8 7 9 7 6 4 2 3 5 6 7 10 12 13 16 16 18 18 19 19 21 21 23 25 26 26 28 28 30 30 29 29 28 29 34 26 26 25 24 22 20 21 21
9 8 8 7 7 3 2 2 3 6 10 12 15 15 15 15 18 19 20 20 21 23 25 25 27 29 28 30 31 32 32 31 31 32 37 32 31 30 28 27 25 23 21
10 9 8 8 7 4 2 2 3 6 10 13 15 16 17 19 20 21 22 22 23 23 24 27 28 30 31 30 30 30 31 32 32 32 34 34 32 32 32 31 30 28 27
10 10 9 9 7 6 7 7 9 13 17 20 19 19 19 20 22 23 23 25 25 24 24 25 27 28 29 31 33 33 30 30 31 32 32 37 31 32 32 32 32 33 32
10 10 11 11 10 11 12 14 15 19 21 22 21 23 24 25 26 26 26 25 25 25 27 28 27 28 30 29 30 31 31 31 31 33 32 34 35 33 34 34 34 33 33
9 10 12 13 15 16 17 19 20 23 25 26 25 27 27 26 26 26 26 26 29 30 31 33 32 32 32 33 34 34 35 35 35 35 34 33 36 37 34 35 36 35 34
11 12 14 17 19 21 24 21 24 26 26 26 25 24 28 28 29 28 29 28 32 33 32 31 31 35 39 38 37 37 40 40 40 40 40 38 37 37 39 40 35 37 37
21 20 20 21 25 25 25 25 26 26 25 25 25 27 29 30 32 33 33 34 36 37 35 35 36 37 40 41 41 44 42 44 47 46 46 45 44 43 39 41 41 38 38
22 23 25 26 27 24 26 27 27 26 27 29 32 36 36 37 37 39 41 41 41 44 46 43 42 44 43 42 44 45 46 46 49 49 48 49 48 48 48 43 46 41 44
18 16 15 19 21 23 28 29 29 30 32 35 37 41 42 44 44 45 45 45 48 50 49 44 44 45 42 41 43 44 48 46 45 47 48 50 46 47 47 50 46 43 42
14 15 19 22 24 25 27 31 32 33 37 39 42 42 42 46 48 51 53 49 48 45 43 42 41 42 46 44 45 45 46 49 41 34 41 45 47 49 47 47 50 47 46
17 22 25 27 29 29 30 34 35 37 41 44 45 48 51 47 48 47 45 46 44 41 42 44 47 50 52 53 53 52 45 46 49 50 45 41 41 45 45 49 46 53 52
22 25 27 30 32 33 34 36 39 42 44 46 49 54 55 54 48 45 43 41 42 43 48 52 55 57 57 57 57 58 58 56 54 55 57 49 52 45 45 42 45 50 54
26 24 27 28 31 34 35 37 40 45 48 51 55 53 48 44 40 40 43 46 49 52 55 57 58 58 58 58 57 56 54 53 52 54 53 55 56 47 59 55 44 45 50
Wind_Direction
200 173 168 164 155 153 140 125 130 137 223 335 342 324 325 313 306 304 295 287 288 276 280 289 276 265 271 302 299 294 291 294 297 294 291 293 288 284 292 290 285 284 279
173 175 178 168 162 151 143 174 180 213 284 315 309 326 322 311 302 292 282 279 275 274 279 279 270 272 272 288 292 295 301 305 299 296 291 293 287 290 304 303 296 302 294
190 186 177 172 162 184 203 224 254 312 320 309 294 289 282 292 290 282 275 272 271 271 272 274 272 270 273 279 284 288 295 300 298 297 288 297 299 284 290 285 291 292 291
192 191 182 177 193 217 225 215 256 292 297 297 292 285 280 283 287 290 285 277 273 273 273 275 276 278 281 286 289 292 294 293 292 294 275 282 281 287 285 283 286 286 278
183 184 175 175 188 187 200 253 297 305 306 299 292 286 286 285 286 284 287 284 276 275 279 278 278 281 285 286 290 291 292 290 289 281 275 273 275 280 293 286 287 286 277
166 162 162 179 199 242 276 293 304 306 300 297 297 294 294 292 288 288 283 282 280 278 275 272 276 280 282 287 289 287 287 286 281 276 253 278 279 279 282 284 282 285 276
160 170 186 205 240 263 282 298 302 299 302 313 310 304 296 297 293 288 286 280 275 275 278 282 283 281 283 286 286 287 288 286 282 277 274 274 270 281 275 274 278 282 272
180 187 203 237 272 293 303 303 308 317 332 333 334 327 317 315 307 304 307 305 294 284 282 283 286 289 289 289 290 289 287 283 281 275 279 281 273 273 273 274 267 264 261
186 210 257 290 293 292 298 312 319 314 311 321 332 324 315 310 309 309 307 306 303 297 291 286 285 287 291 295 296 297 292 289 283 279 270 273 287 274 274 268 267 261 247
228 263 288 292 292 301 299 306 298 279 282 303 314 313 310 309 308 307 306 304 301 297 294 292 291 291 292 294 295 295 293 287 285 289 286 287 294 279 274 268 267 265 246
242 262 271 275 275 271 283 287 292 288 288 297 300 303 302 304 304 299 302 299 297 294 290 288 287 288 289 288 288 288 287 286 288 285 281 287 286 282 276 271 266 264 250
243 246 245 252 262 270 276 303 322 325 317 310 308 307 302 306 307 306 306 302 297 294 292 291 292 291 289 290 288 282 282 282 282 280 278 284 281 281 281 276 267 268 258
224 210 246 246 235 233 272 327 334 328 323 319 314 312 309 308 305 305 307 308 305 298 293 294 289 287 287 287 286 286 284 283 281 281 279 281 280 277 277 277 276 269 269
207 207 225 231 232 231 291 16 20 5 356 341 325 312 305 307 311 311 308 307 306 305 304 300 298 295 289 288 286 286 286 285 283 282 281 282 282 280 276 273 270 266 259
198 199 221 238 243 251 295 324 323 324 323 322 318 309 299 300 308 311 309 308 306 305 306 306 306 304 300 295 290 288 286 285 284 284 283 284 281 279 278 275 270 266 260
196 209 231 245 256 277 291 294 297 301 308 310 311 311 306 301 304 307 312 312 308 308 309 309 307 304 301 300 299 296 292 289 287 284 283 285 281 280 278 276 273 270 264
214 221 241 267 284 293 298 298 296 299 306 314 312 312 310 305 304 306 306 309 305 306 306 305 306 304 300 297 296 294 293 291 287 285 282 281 281 278 276 275 273 271 268
218 242 249 273 279 283 289 292 294 300 306 309 308 309 305 300 303 304 306 303 306 307 304 306 307 306 303 300 299 296 295 295 292 289 287 284 283 284 276 274 274 271 269
231 244 255 264 270 275 277 284 291 293 297 300 303 302 299 301 299 300 304 305 306 305 302 303 304 305 302 297 293 292 292 290 289 291 289 286 284 282 283 280 272 274 273
235 251 260 263 266 269 276 281 283 288 291 295 298 295 299 301 300 298 299 298 301 304 300 293 291 290 290 287 285 286 284 285 288 289 288 286 285 282 280 280 281 276 272
250 258 262 265 266 274 271 275 275 279 282 293 294 294 293 293 294 295 295 295 296 298 298 292 291 291 290 287 285 283 281 277 278 279 280 281 282 284 282 277 278 276 274
261 265 268 270 275 274 278 278 278 277 282 286 284 288 293 293 291 285 287 290 291 291 292 289 290 291 288 288 286 285 284 280 278 282 280 278 280 277 279 279 277 274 270
266 281 290 288 286 284 280 275 276 277 280 285 288 290 287 299 298 298 294 291 291 290 290 293 293 293 292 291 288 283 281 278 279 271 269 271 269 270 272 275 277 277 272
290 298 296 289 285 281 276 278 279 282 287 289 292 295 301 299 298 299 296 295 294 293 291 292 292 290 288 285 284 281 272 271 272 270 258 260 270 256 264 263 265 274 271
302 295 290 286 284 284 286 285 286 288 289 292 297 301 301 301 301 299 298 296 294 290 286 286 285 284 283 284 284 283 284 280 271 265 264 261 257 268 254 248 256 259 265
309 297 291 290 293 295 295 295 296 295 296 296 297 297 296 298 299 299 295 293 291 289 287 286 285 284 282 283 282 281 279 276 272 268 264 261 259 255 262 263 245 230 250